Regional Weather Roundup
Issued by NWS Sterling, VA

Home | Current Version | Previous Version | Graphics & Text | Print | Product List | Glossary On
Versions: 1 2 3 4 5 6 7 8 9 10 11 12 13 14 15 16 17 18 19 20 21 22 23 24 25 26 27 28 29 30 31 32 33 34 35 36 37 38 39 40 41 42 43 44 45 46 47 48 49 50
097
ASUS41 KLWX 091810
RWRLWX

REGIONAL WEATHER ROUNDUP
NATIONAL WEATHER SERVICE BALTIMORE MD/WASHINGTON DC
100 PM EST TUE FEB 09 2016

Note: "FAIR" indicates few or no clouds below 12,000 feet
with no significant weather and/or obstructions to visibility.
 TC=TEMPERATURE CELSIUS

 * =Non NWS site. Station does not report precipitation (e.g. rain,
    snow, etc.), thunder, or fog.

DCZ001-MDZ009-015-VAZ040>042-051-053>054-091900-
WASHINGTON METRO

CITY           SKY/WX    TMP DP  RH WIND       PRES   REMARKS
WASHINGTON NAT LGT RAIN  38  34  85 NW9       29.56F
DULLES         CLOUDY    36  32  85 N9        29.55F FOG     WCI  29
ANDREWS AFB    PTSUNNY   37  36  93 NW10      29.53F
FT BELVOIR     PTSUNNY   39  34  81 NW8       29.55F
QUANTICO       CLOUDY    40  35  83 NW3       29.57F
COLLEGE PARK*  CLOUDY    36  36 100 CALM      29.55F
LEESBURG*      FLURRIES  36  36 100 CALM      29.56F
GAITHERSBURG*  CLOUDY    34  30  86 NW3       29.57F

$$

MDZ006>007-011-014-091900-
BALTIMORE METRO

CITY           SKY/WX    TMP DP  RH WIND       PRES   REMARKS
BWI AIRPORT    LGT SNOW  34  33  96 CALM      29.54F FOG
MD SCIENCE CTR   N/A     34  32  92 MISG      29.56F
MARTIN STATE   FLURRIES  36  36 100 CALM      29.57F
ANNAPOLIS      LGT RAIN  36  35  96 CALM      29.54F FOG
FORT MEADE*    CLOUDY    34  32  93 CALM      29.57F

$$

MDZ012-015-019>023-091900-
MARYLAND EASTERN SHORE

CITY           SKY/WX    TMP DP  RH WIND       PRES   REMARKS
OCEAN CITY     CLOUDY    41  36  82 E8        29.54F
SALISBURY      LGT RAIN  41  38  89 E6        29.53F
BAY BRIDGE AP* LGT RAIN  36  36 100 CALM      29.55F
CAMBRIDGE*     CLOUDY    39  36  87 SE7       29.53F
EASTON*        LGT RAIN  37  37 100 E5        29.57F FOG

$$

MDZ017>025-091900-
SOUTHERN MARYLAND

CITY           SKY/WX    TMP DP  RH WIND       PRES   REMARKS
PATUXENT RIVER CLOUDY    41  38  89 SE9       29.54F
ST INIGOES     MOSUNNY   42  37  82 VRB3      29.54F
LEONARDTOWN*   CLOUDY    41  36  81 SW7       29.55F

$$

MDZ003>005-091900-
NORTH CENTRAL MARYLAND

CITY           SKY/WX    TMP DP  RH WIND       PRES   REMARKS
FREDERICK*     LGT SNOW  34  34 100 CALM      29.58F
HAGERSTOWN APT LGT SNOW  34  31  88 W10       29.53S FOG     WCI  26
WESTMINSTER*   LGT SNOW  34  30  86 CALM      29.52F

$$

MDZ501>502-091900-
WESTERN MARYLAND

CITY           SKY/WX    TMP DP  RH WIND       PRES   REMARKS
OAKLAND*       CLOUDY    21  18  86 W13G22    29.48F FOG     WCI   9
CUMBERLAND*    CLOUDY    32  25  74 SW7G17    29.61F

$$

VAZ025>031-091900-
SHENANDOAH VALLEY

CITY           SKY/WX    TMP DP  RH WIND       PRES   REMARKS
WINCHESTER*    CLOUDY    37  28  70 W21       29.54F WCI  27
FRONT ROYAL*   CLOUDY    36  28  75 NW6       29.54F
LURAY*         CLOUDY    36  27  69 CALM      29.55F
NEW MARKET*    CLOUDY    36  23  59 NW3       29.55F
STAUNTON*      CLOUDY    41  25  52 W6        29.56F
WAYNESBORO*    CLOUDY    35  19  50 W8G17     29.54F WCI  29

$$

WVZ021-048>050-054>055-091900-
EASTERN WEST VIRGINIA PANHANDLE

CITY           SKY/WX    TMP DP  RH WIND       PRES   REMARKS
MARTINSBURG    CLOUDY    35  28  75 W13       29.55F WCI  26
PETERSBURG*    PTSUNNY   34  15  45 CALM      29.58F

$$

VAZ036>039-050-091900-
CENTRAL FOOTHILLS

CITY           SKY/WX    TMP DP  RH WIND       PRES   REMARKS
CHARLOTTESVILL PTSUNNY   43  27  53 NW12G17   29.54F
CULPEPER*      LGT RAIN  38  33  83 W5        29.56F
ORANGE*        CLOUDY    41  32  70 SW12      29.56F
GORDONSVILLE*  CLOUDY    39  30  69 W3        29.55F
WARRENTON*     DRIZZLE   40  38  92 CALM      29.54F

$$

VAZ055>057-091900-
NORTH AND CENTRAL PIEDMONT

CITY           SKY/WX    TMP DP  RH WIND       PRES   REMARKS
FREDERICKSBRG* PTSUNNY   38  37  93 CALM      29.56F
STAFFORD*      LGT RAIN  38  35  86 CALM      29.60F

$$

NCZ024-NYZ072-PAZ021-071-VAZ022-071-091900-
OTHER REGIONAL OBSERVATIONS

CITY           SKY/WX    TMP DP  RH WIND       PRES   REMARKS
NEW YORK CITY  CLOUDY    34  22  61 CALM      29.60F
PHILADELPHIA   FLURRIES  36  29  75 NE8       29.56F
PITTSBURGH     LGT SNOW  28  23  81 SW8       29.56F FOG     WCI  20
ROANOKE        CLOUDY    33  16  49 W12       29.64F WCI  24
RICHMOND       PTSUNNY   46  30  53 NW9       29.56F
RALEIGH        PTSUNNY   42  26  53 SW13      29.63F

$$

ANZ530>537-091900-
MARINE OBSERVATIONS

STATION/POSITION TIME  TEMP    WIND        PRES
                       AIR SEA DIR/SP/G
                 (UTC) (F)     (DEG/KT/KT) (MB)
THOMAS PT LIGHT  NOT AVBL
BALT KEY BRIDGE  1700   34      60/  5/  6 1001.1F
COVE POINT       1700   38     180/  8/ 10 1001.4F
LEWISETTA        1700   40 42  150/  5/  6 1000.7F
SOLOMONS ISLAND  1700   39 41  140/  8/  9   N/A
PINEY POINT      1700          280/  1/  2   N/A

$$





USA.gov is the U.S. government's official web portal to all federal, state and local government web resources and services.